Language: 


Des rapports , des résumés tant et plus, au choix de chacun....


Données statistiques de la station
Quotidien Rapport Juillet 21, 2017 Unités:  Métrique    Anglais   les deux
« Précédent Jour
Suivant Jour »
Quotidien Hebdomadaire Mensuel Annuel Actuel
  Haut: Bas: Moyen:
Température: 27.6 °C 9.3 °C 19 °C
Pt de rosée: 15.0 °C 8.0 °C 10.9 °C
Humidité: 97 % 32 % 64 %
Vitesse du vent: 19.1 km/h 0.0 km/h 4 km/h
Rafales: 26.7 km/h - -
Vent:- - South
Pression: 1014.1 hPa 1007.0 hPa -
Précipitation: 0.0 mm    
Historical Graphs
 
 
Données statistiques pour Juillet 21, 2017
Heure Température Point de rosée Pression Vent Vitesse du vent Refales Humidité Pluie (taux horaire)
00:02 13.6 °C 11.0 °C 1013.1 hPa Calm   7.6 km/h 81 % 0.0 mm
00:04 13.6 °C 11.0 °C 1013.1 hPa SSW 4.0 km/h 7.6 km/h 81 % 0.0 mm
00:09 13.6 °C 11.0 °C 1013.1 hPa SSW 6.9 km/h 9.3 km/h 82 % 0.0 mm
00:14 13.6 °C 11.0 °C 1014.1 hPa SSW 2.1 km/h 9.3 km/h 83 % 0.0 mm
00:19 13.6 °C 11.0 °C 1014.1 hPa Calm   6.9 km/h 83 % 0.0 mm
00:24 13.6 °C 11.0 °C 1014.1 hPa SW 7.6 km/h 7.6 km/h 83 % 0.0 mm
00:29 13.6 °C 11.0 °C 1013.1 hPa SSW 6.4 km/h 11.6 km/h 83 % 0.0 mm
00:34 13.5 °C 11.0 °C 1013.1 hPa SW 4.0 km/h 11.6 km/h 83 % 0.0 mm
00:39 13.6 °C 11.0 °C 1013.1 hPa Calm   7.9 km/h 84 % 0.0 mm
00:44 13.6 °C 11.0 °C 1013.1 hPa Calm   6.9 km/h 84 % 0.0 mm
00:49 13.7 °C 11.0 °C 1013.1 hPa South 2.6 km/h 6.9 km/h 84 % 0.0 mm
00:54 13.6 °C 11.0 °C 1013.1 hPa Calm   6.9 km/h 84 % 0.0 mm
00:59 13.5 °C 11.0 °C 1014.1 hPa Calm   5.0 km/h 84 % 0.0 mm
01:05 13.5 °C 11.0 °C 1014.1 hPa Calm   5.0 km/h 84 % 0.0 mm
01:10 13.4 °C 11.0 °C 1014.1 hPa Calm   5.5 km/h 84 % 0.0 mm
01:15 13.2 °C 11.0 °C 1014.1 hPa Calm   5.5 km/h 84 % 0.0 mm
01:20 13.0 °C 11.0 °C 1014.1 hPa Calm   4.0 km/h 84 % 0.0 mm
01:25 13.0 °C 11.0 °C 1014.1 hPa WSW 1.4 km/h 4.0 km/h 85 % 0.0 mm
01:30 13.0 °C 11.0 °C 1014.1 hPa SW 4.3 km/h 4.7 km/h 85 % 0.0 mm
01:35 13.0 °C 11.0 °C 1014.1 hPa Calm   4.7 km/h 85 % 0.0 mm
01:40 12.8 °C 11.0 °C 1014.1 hPa Calm   4.3 km/h 86 % 0.0 mm
01:45 12.6 °C 11.0 °C 1014.1 hPa Calm   5.5 km/h 86 % 0.0 mm
01:50 12.5 °C 11.0 °C 1014.1 hPa Calm   5.5 km/h 87 % 0.0 mm
01:55 12.5 °C 11.0 °C 1014.1 hPa Calm   6.1 km/h 87 % 0.0 mm
02:00 12.5 °C 11.0 °C 1014.1 hPa SSW 4.3 km/h 6.1 km/h 87 % 0.0 mm
02:05 12.5 °C 11.0 °C 1014.1 hPa SSW 4.0 km/h 6.1 km/h 88 % 0.0 mm
02:10 12.6 °C 11.0 °C 1014.1 hPa South 5.0 km/h 6.4 km/h 88 % 0.0 mm
02:15 12.6 °C 11.0 °C 1014.1 hPa SSW 2.1 km/h 6.1 km/h 88 % 0.0 mm
02:20 12.6 °C 11.0 °C 1014.1 hPa Calm   7.2 km/h 88 % 0.0 mm
02:25 12.5 °C 11.0 °C 1014.1 hPa Calm   7.2 km/h 88 % 0.0 mm
02:30 12.4 °C 11.0 °C 1014.1 hPa Calm     88 % 0.0 mm
02:35 12.2 °C 10.0 °C 1014.1 hPa Calm     88 % 0.0 mm
02:40 12.1 °C 10.0 °C 1014.1 hPa SSW 1.4 km/h 1.4 km/h 88 % 0.0 mm
02:45 11.9 °C 10.0 °C 1014.1 hPa Calm   2.1 km/h 88 % 0.0 mm
02:50 11.8 °C 10.0 °C 1014.1 hPa Calm   2.1 km/h 88 % 0.0 mm
02:55 11.7 °C 10.0 °C 1013.1 hPa Calm   1.4 km/h 88 % 0.0 mm
03:00 11.4 °C 9.0 °C 1013.1 hPa Calm   1.4 km/h 88 % 0.0 mm
03:05 11.2 °C 10.0 °C 1013.1 hPa Calm   4.3 km/h 89 % 0.0 mm
03:10 11.1 °C 9.0 °C 1013.1 hPa South 1.4 km/h 4.3 km/h 90 % 0.0 mm
03:15 11.1 °C 9.0 °C 1013.1 hPa SSW 1.4 km/h 2.1 km/h 90 % 0.0 mm
03:20 11.0 °C 10.0 °C 1013.1 hPa Calm   2.1 km/h 91 % 0.0 mm
03:25 11.0 °C 10.0 °C 1013.1 hPa Calm   2.6 km/h 91 % 0.0 mm
03:30 11.0 °C 10.0 °C 1013.1 hPa Calm   2.6 km/h 91 % 0.0 mm
03:32 11.0 °C 10.0 °C 1013.1 hPa Calm   2.6 km/h 91 % 0.0 mm
03:37 11.0 °C 10.0 °C 1013.1 hPa Calm   2.1 km/h 92 % 0.0 mm
03:42 11.0 °C 10.0 °C 1013.1 hPa Calm   2.1 km/h 92 % 0.0 mm
03:47 11.0 °C 10.0 °C 1013.1 hPa Calm   1.8 km/h 92 % 0.0 mm
03:52 10.9 °C 10.0 °C 1013.1 hPa Calm   1.8 km/h 92 % 0.0 mm
03:57 10.9 °C 10.0 °C 1013.1 hPa Calm   1.8 km/h 92 % 0.0 mm
04:02 10.7 °C 9.0 °C 1013.1 hPa Calm     92 % 0.0 mm
04:07 10.6 °C 9.0 °C 1013.1 hPa Calm     92 % 0.0 mm
04:13 10.5 °C 9.0 °C 1013.1 hPa Calm   2.1 km/h 92 % 0.0 mm
04:18 10.2 °C 9.0 °C 1013.1 hPa Calm   2.1 km/h 92 % 0.0 mm
04:23 10.0 °C 9.0 °C 1013.1 hPa Calm     91 % 0.0 mm
04:28 9.8 °C 9.0 °C 1013.1 hPa Calm     92 % 0.0 mm
04:33 9.6 °C 9.0 °C 1013.1 hPa Calm     92 % 0.0 mm
04:38 9.5 °C 9.0 °C 1013.1 hPa Calm     92 % 0.0 mm
04:43 9.4 °C 8.0 °C 1013.1 hPa Calm     92 % 0.0 mm
04:48 9.5 °C 9.0 °C 1013.1 hPa Calm     93 % 0.0 mm
04:53 9.7 °C 9.0 °C 1013.1 hPa Calm     94 % 0.0 mm
04:58 9.7 °C 9.0 °C 1013.1 hPa Calm     94 % 0.0 mm
05:03 9.6 °C 9.0 °C 1013.1 hPa Calm     94 % 0.0 mm
05:08 9.6 °C 9.0 °C 1013.1 hPa Calm     94 % 0.0 mm
05:13 9.5 °C 9.0 °C 1013.1 hPa Calm     94 % 0.0 mm
05:15 9.4 °C 9.0 °C 1013.1 hPa Calm     94 % 0.0 mm
05:20 9.3 °C 9.0 °C 1013.1 hPa Calm     94 % 0.0 mm
05:25 9.3 °C 9.0 °C 1012.1 hPa Calm     94 % 0.0 mm
05:30 9.5 °C 9.0 °C 1012.1 hPa Calm     95 % 0.0 mm
05:35 9.6 °C 9.0 °C 1012.1 hPa Calm     95 % 0.0 mm
05:40 9.8 °C 9.0 °C 1012.1 hPa Calm     96 % 0.0 mm
05:45 9.9 °C 10.0 °C 1012.1 hPa Calm     96 % 0.0 mm
05:50 9.9 °C 10.0 °C 1012.1 hPa Calm     96 % 0.0 mm
05:55 9.8 °C 9.0 °C 1013.1 hPa Calm     96 % 0.0 mm
06:00 9.8 °C 9.0 °C 1013.1 hPa Calm     96 % 0.0 mm
06:05 9.7 °C 9.0 °C 1013.1 hPa Calm     95 % 0.0 mm
06:10 9.7 °C 9.0 °C 1013.1 hPa Calm     96 % 0.0 mm
06:15 9.7 °C 9.0 °C 1013.1 hPa Calm     96 % 0.0 mm
06:20 9.9 °C 10.0 °C 1013.1 hPa Calm     96 % 0.0 mm
06:25 10.0 °C 10.0 °C 1013.1 hPa Calm     96 % 0.0 mm
06:30 10.1 °C 10.0 °C 1013.1 hPa Calm     96 % 0.0 mm
06:35 10.1 °C 10.0 °C 1013.1 hPa Calm     96 % 0.0 mm
06:40 10.2 °C 10.0 °C 1012.1 hPa Calm     96 % 0.0 mm
06:45 10.4 °C 10.0 °C 1012.1 hPa Calm     96 % 0.0 mm
06:51 10.6 °C 10.0 °C 1012.1 hPa Calm     96 % 0.0 mm
06:56 10.9 °C 11.0 °C 1013.1 hPa Calm     96 % 0.0 mm
07:01 11.0 °C 11.0 °C 1013.1 hPa Calm     96 % 0.0 mm
07:06 11.2 °C 11.0 °C 1013.1 hPa Calm     96 % 0.0 mm
07:11 11.7 °C 11.0 °C 1013.1 hPa Calm     96 % 0.0 mm
07:16 12.2 °C 12.0 °C 1013.1 hPa Calm     96 % 0.0 mm
07:21 12.6 °C 13.0 °C 1013.1 hPa Calm     97 % 0.0 mm
07:23 12.8 °C 13.0 °C 1013.1 hPa Calm     97 % 0.0 mm
07:28 13.5 °C 13.0 °C 1012.1 hPa Calm     96 % 0.0 mm
07:33 13.9 °C 14.0 °C 1012.1 hPa Calm     96 % 0.0 mm
07:38 14.4 °C 14.0 °C 1012.1 hPa Calm     95 % 0.0 mm
07:43 14.7 °C 14.0 °C 1012.1 hPa Calm   6.1 km/h 94 % 0.0 mm
07:48 15.0 °C 14.0 °C 1012.1 hPa Calm   6.1 km/h 93 % 0.0 mm
07:53 15.2 °C 14.0 °C 1012.1 hPa Calm   4.3 km/h 92 % 0.0 mm
07:58 15.6 °C 14.0 °C 1013.1 hPa Calm   4.3 km/h 91 % 0.0 mm
08:03 15.9 °C 14.0 °C 1013.1 hPa Calm   6.1 km/h 90 % 0.0 mm
08:08 16.3 °C 14.0 °C 1013.1 hPa Calm   6.9 km/h 88 % 0.0 mm
08:13 16.6 °C 14.0 °C 1013.1 hPa Calm   6.9 km/h 85 % 0.0 mm
08:19 17.0 °C 15.0 °C 1013.1 hPa Calm   6.4 km/h 85 % 0.0 mm
08:24 17.3 °C 14.0 °C 1013.1 hPa Calm   6.1 km/h 82 % 0.0 mm
08:29 17.6 °C 14.0 °C 1012.1 hPa Calm   7.2 km/h 80 % 0.0 mm
08:34 17.4 °C 13.0 °C 1012.1 hPa ENE 7.2 km/h 8.7 km/h 76 % 0.0 mm
08:39 17.5 °C 13.0 °C 1012.1 hPa Calm   8.7 km/h 75 % 0.0 mm
08:40 17.5 °C 13.0 °C 1013.1 hPa Calm   8.7 km/h 76 % 0.0 mm
08:45 17.6 °C 13.0 °C 1013.1 hPa SSE 5.5 km/h 6.1 km/h 75 % 0.0 mm
08:50 17.7 °C 13.0 °C 1013.1 hPa Calm   5.5 km/h 74 % 0.0 mm
08:55 17.9 °C 14.0 °C 1013.1 hPa South 5.5 km/h 5.5 km/h 76 % 0.0 mm
09:01 18.1 °C 13.0 °C 1013.1 hPa South 11.9 km/h 11.9 km/h 72 % 0.0 mm
09:06 18.0 °C 13.0 °C 1013.1 hPa SSE 9.7 km/h 11.9 km/h 71 % 0.0 mm
09:11 18.0 °C 12.0 °C 1013.1 hPa Calm   12.2 km/h 68 % 0.0 mm
09:16 18.0 °C 13.0 °C 1013.1 hPa SE 1.4 km/h 12.2 km/h 70 % 0.0 mm
09:21 17.9 °C 12.0 °C 1013.1 hPa SE 4.0 km/h 10.5 km/h 69 % 0.0 mm
09:26 18.0 °C 12.0 °C 1013.1 hPa Calm   10.5 km/h 69 % 0.0 mm
09:31 18.2 °C 13.0 °C 1013.1 hPa Calm   9.0 km/h 70 % 0.0 mm
09:36 18.4 °C 13.0 °C 1013.1 hPa SSE 1.4 km/h 7.6 km/h 70 % 0.0 mm
09:41 18.6 °C 13.0 °C 1012.1 hPa SE 5.8 km/h 11.6 km/h 67 % 0.0 mm
09:46 18.8 °C 13.0 °C 1012.1 hPa South 1.4 km/h 13.7 km/h 68 % 0.0 mm
09:51 18.9 °C 13.0 °C 1012.1 hPa Calm   13.7 km/h 65 % 0.0 mm
09:56 19.4 °C 13.0 °C 1013.1 hPa South 9.3 km/h 10.1 km/h 66 % 0.0 mm
10:01 19.7 °C 13.0 °C 1013.1 hPa Calm   10.1 km/h 66 % 0.0 mm
10:06 20.4 °C 14.0 °C 1013.1 hPa SSE 10.5 km/h 10.5 km/h 65 % 0.0 mm
10:11 20.8 °C 13.0 °C 1013.1 hPa SE 9.0 km/h 16.9 km/h 62 % 0.0 mm
10:16 21.5 °C 14.0 °C 1013.1 hPa NE 1.8 km/h 16.9 km/h 60 % 0.0 mm
10:21 21.2 °C 12.0 °C 1013.1 hPa SE 7.6 km/h 17.7 km/h 54 % 0.0 mm
10:26 21.0 °C 11.0 °C 1013.1 hPa SSE 4.3 km/h 17.7 km/h 53 % 0.0 mm
10:31 21.5 °C 12.0 °C 1013.1 hPa SE 9.7 km/h 16.3 km/h 52 % 0.0 mm
10:37 21.3 °C 11.0 °C 1013.1 hPa SSE 12.6 km/h 16.3 km/h 52 % 0.0 mm
10:42 21.4 °C 12.0 °C 1013.1 hPa ESE 6.9 km/h 14.0 km/h 53 % 0.0 mm
10:47 21.7 °C 12.0 °C 1013.1 hPa SSE 7.6 km/h 15.1 km/h 54 % 0.0 mm
10:52 22.5 °C 13.0 °C 1013.1 hPa SE 6.1 km/h 15.1 km/h 54 % 0.0 mm
10:57 22.3 °C 12.0 °C 1013.1 hPa SSW 11.6 km/h 12.6 km/h 50 % 0.0 mm
11:02 22.5 °C 12.0 °C 1013.1 hPa SSE 4.7 km/h 12.6 km/h 50 % 0.0 mm
11:07 22.7 °C 12.0 °C 1013.1 hPa SSE 9.7 km/h 12.6 km/h 50 % 0.0 mm
11:12 22.7 °C 12.0 °C 1013.1 hPa SSE 1.4 km/h 19.1 km/h 50 % 0.0 mm
11:17 22.9 °C 12.0 °C 1013.1 hPa South 9.7 km/h 19.1 km/h 49 % 0.0 mm
11:22 22.9 °C 12.0 °C 1013.1 hPa South 9.7 km/h 17.2 km/h 48 % 0.0 mm
11:27 22.6 °C 11.0 °C 1013.1 hPa SSE 9.0 km/h 19.5 km/h 48 % 0.0 mm
11:32 23.4 °C 13.0 °C 1013.1 hPa SE 9.7 km/h 19.5 km/h 50 % 0.0 mm
11:37 23.9 °C 13.0 °C 1013.1 hPa SSE 7.2 km/h 14.0 km/h 50 % 0.0 mm
11:42 24.3 °C 13.0 °C 1012.1 hPa SSE 8.7 km/h 14.0 km/h 49 % 0.0 mm
11:47 24.5 °C 12.0 °C 1012.1 hPa South 7.6 km/h 19.8 km/h 45 % 0.0 mm
11:52 24.6 °C 12.0 °C 1012.1 hPa SSE 6.4 km/h 19.8 km/h 44 % 0.0 mm
11:57 24.6 °C 12.0 °C 1012.1 hPa SSE 19.1 km/h 19.1 km/h 44 % 0.0 mm
12:02 24.9 °C 12.0 °C 1012.1 hPa South 9.7 km/h 19.1 km/h 44 % 0.0 mm
12:04 25.1 °C 12.0 °C 1012.1 hPa SSW 1.8 km/h 19.1 km/h 43 % 0.0 mm
12:09 25.7 °C 12.0 °C 1012.1 hPa SE 10.1 km/h 12.6 km/h 42 % 0.0 mm
12:14 25.7 °C 12.0 °C 1011.1 hPa SE 3.2 km/h 17.2 km/h 42 % 0.0 mm
12:19 26.0 °C 12.0 °C 1011.1 hPa ESE 6.9 km/h 17.7 km/h 40 % 0.0 mm
12:24 26.0 °C 12.0 °C 1011.1 hPa SSE 11.9 km/h 17.7 km/h 41 % 0.0 mm
12:29 26.2 °C 12.0 °C 1011.1 hPa SSE 2.6 km/h 15.8 km/h 40 % 0.0 mm
12:34 25.7 °C 11.0 °C 1011.1 hPa ESE 8.7 km/h 15.8 km/h 39 % 0.0 mm
12:39 26.4 °C 12.0 °C 1011.1 hPa Calm   15.4 km/h 41 % 0.0 mm
12:45 26.6 °C 12.0 °C 1011.1 hPa SSE 6.4 km/h 15.4 km/h 39 % 0.0 mm
12:50 25.6 °C 10.0 °C 1011.1 hPa SE 7.9 km/h 16.3 km/h 38 % 0.0 mm
12:55 25.6 °C 11.0 °C 1011.1 hPa Calm   16.3 km/h 40 % 0.0 mm
13:00 25.4 °C 11.0 °C 1011.1 hPa SE 9.3 km/h 12.6 km/h 40 % 0.0 mm
13:05 25.5 °C 12.0 °C 1011.1 hPa SSE 6.1 km/h 12.6 km/h 41 % 0.0 mm
13:10 25.7 °C 12.0 °C 1011.1 hPa South 8.7 km/h 11.6 km/h 41 % 0.0 mm
13:15 25.9 °C 10.0 °C 1011.1 hPa South 4.7 km/h 16.3 km/h 37 % 0.0 mm
13:20 26.2 °C 11.0 °C 1011.1 hPa South 14.0 km/h 16.3 km/h 38 % 0.0 mm
13:25 25.0 °C 9.0 °C 1011.1 hPa South 6.1 km/h 14.0 km/h 37 % 0.0 mm
13:30 26.7 °C 11.0 °C 1011.1 hPa SSE 10.1 km/h 17.2 km/h 38 % 0.0 mm
13:35 25.7 °C 10.0 °C 1011.1 hPa SE 11.6 km/h 17.2 km/h 36 % 0.0 mm
13:40 26.3 °C 11.0 °C 1011.1 hPa West 2.6 km/h 15.1 km/h 38 % 0.0 mm
13:45 26.6 °C 11.0 °C 1011.1 hPa SSE 6.9 km/h 14.0 km/h 38 % 0.0 mm
13:50 27.1 °C 11.0 °C 1011.1 hPa South 11.9 km/h 14.0 km/h 37 % 0.0 mm
13:55 27.1 °C 10.0 °C 1011.1 hPa SW 9.3 km/h 19.5 km/h 35 % 0.0 mm
14:00 27.1 °C 10.0 °C 1011.1 hPa South 1.4 km/h 19.5 km/h 33 % 0.0 mm
14:05 27.4 °C 10.0 °C 1011.1 hPa SSW 14.8 km/h 26.7 km/h 33 % 0.0 mm
14:10 27.5 °C 10.0 °C 1010.0 hPa Calm   26.7 km/h 33 % 0.0 mm
14:15 27.4 °C 10.0 °C 1010.0 hPa SSE 5.5 km/h 20.6 km/h 33 % 0.0 mm
14:20 26.6 °C 9.0 °C 1010.0 hPa South 6.1 km/h 20.6 km/h 33 % 0.0 mm
14:25 27.2 °C 10.0 °C 1010.0 hPa South 11.6 km/h 16.9 km/h 34 % 0.0 mm
14:30 27.4 °C 10.0 °C 1010.0 hPa South 15.8 km/h 19.5 km/h 33 % 0.0 mm
14:35 26.6 °C 9.0 °C 1010.0 hPa South 7.9 km/h 21.2 km/h 32 % 0.0 mm
14:40 26.6 °C 10.0 °C 1010.0 hPa South 10.1 km/h 21.2 km/h 34 % 0.0 mm
14:45 27.2 °C 10.0 °C 1010.0 hPa SSE 7.9 km/h 17.7 km/h 34 % 0.0 mm
14:50 26.9 °C 10.0 °C 1010.0 hPa SSE 9.7 km/h 17.7 km/h 33 % 0.0 mm
14:56 26.5 °C 10.0 °C 1010.0 hPa South 5.8 km/h 15.4 km/h 34 % 0.0 mm
15:01 26.6 °C 10.0 °C 1010.0 hPa South 6.9 km/h 14.3 km/h 35 % 0.0 mm
15:06 26.6 °C 10.0 °C 1010.0 hPa SE 11.6 km/h 17.2 km/h 34 % 0.0 mm
15:11 26.3 °C 10.0 °C 1010.0 hPa ESE 9.0 km/h 17.2 km/h 35 % 0.0 mm
15:16 26.0 °C 9.0 °C 1010.0 hPa SSE 13.7 km/h 14.0 km/h 35 % 0.0 mm
15:21 26.9 °C 11.0 °C 1010.0 hPa SSE 10.5 km/h 17.2 km/h 36 % 0.0 mm
15:26 27.6 °C 11.0 °C 1010.0 hPa SE 10.5 km/h 17.2 km/h 34 % 0.0 mm
15:31 26.6 °C 10.0 °C 1010.0 hPa South 12.2 km/h 20.6 km/h 34 % 0.0 mm
15:36 26.7 °C 10.0 °C 1010.0 hPa SSW 9.3 km/h 20.6 km/h 35 % 0.0 mm
15:38 27.2 °C 10.0 °C 1010.0 hPa SSW 9.7 km/h 13.7 km/h 34 % 0.0 mm
15:43 27.4 °C 10.0 °C 1010.0 hPa South 9.3 km/h 19.5 km/h 34 % 0.0 mm
15:49 27.0 °C 10.0 °C 1010.0 hPa Calm   19.5 km/h 33 % 0.0 mm
15:54 26.4 °C 9.0 °C 1010.0 hPa SSW 14.0 km/h 15.1 km/h 34 % 0.0 mm
15:59 26.2 °C 9.0 °C 1009.0 hPa South 4.7 km/h 15.1 km/h 33 % 0.0 mm
16:04 26.2 °C 9.0 °C 1009.0 hPa SE 17.2 km/h 17.2 km/h 34 % 0.0 mm
16:09 26.7 °C 10.0 °C 1009.0 hPa South 3.2 km/h 17.2 km/h 34 % 0.0 mm
16:14 26.6 °C 10.0 °C 1009.0 hPa South 6.9 km/h 16.6 km/h 34 % 0.0 mm
16:19 27.2 °C 11.0 °C 1009.0 hPa SE 5.0 km/h 18.0 km/h 35 % 0.0 mm
16:24 26.8 °C 10.0 °C 1009.0 hPa South 13.0 km/h 18.0 km/h 34 % 0.0 mm
16:29 26.6 °C 10.0 °C 1009.0 hPa Calm   14.0 km/h 34 % 0.0 mm
16:30 26.6 °C 10.0 °C 1009.0 hPa SSW 4.0 km/h 14.0 km/h 34 % 0.0 mm
16:35 27.2 °C 11.0 °C 1009.0 hPa SSE 14.0 km/h 23.0 km/h 35 % 0.0 mm
16:40 26.6 °C 10.0 °C 1009.0 hPa SSE 8.7 km/h 23.0 km/h 34 % 0.0 mm
16:45 26.5 °C 10.0 °C 1009.0 hPa ESE 7.9 km/h 21.2 km/h 34 % 0.0 mm
16:50 26.7 °C 10.0 °C 1009.0 hPa Calm   11.9 km/h 35 % 0.0 mm
16:55 27.0 °C 10.0 °C 1009.0 hPa SSE 1.4 km/h 14.0 km/h 35 % 0.0 mm
17:00 27.6 °C 11.0 °C 1009.0 hPa SSE 9.0 km/h 16.3 km/h 35 % 0.0 mm
17:05 27.6 °C 11.0 °C 1009.0 hPa SSE 8.7 km/h 16.3 km/h 34 % 0.0 mm
17:10 27.4 °C 11.0 °C 1009.0 hPa ESE 8.7 km/h 14.0 km/h 35 % 0.0 mm
17:15 26.9 °C 10.0 °C 1009.0 hPa SE 4.7 km/h 17.7 km/h 35 % 0.0 mm
17:20 27.4 °C 11.0 °C 1009.0 hPa Calm   17.7 km/h 36 % 0.0 mm
17:25 27.2 °C 10.0 °C 1009.0 hPa South 2.6 km/h 14.8 km/h 34 % 0.0 mm
17:30 26.8 °C 10.0 °C 1009.0 hPa SSE 6.1 km/h 14.8 km/h 34 % 0.0 mm
17:35 26.5 °C 10.0 °C 1009.0 hPa SSE 9.3 km/h 15.4 km/h 34 % 0.0 mm
17:40 26.5 °C 10.0 °C 1008.0 hPa Calm   15.4 km/h 35 % 0.0 mm
17:45 26.6 °C 11.0 °C 1008.0 hPa SSE 6.4 km/h 10.1 km/h 36 % 0.0 mm
17:50 26.6 °C 10.0 °C 1008.0 hPa SSE 12.6 km/h 12.6 km/h 35 % 0.0 mm
17:55 26.9 °C 11.0 °C 1008.0 hPa SSE 1.8 km/h 12.6 km/h 36 % 0.0 mm
18:00 26.6 °C 10.0 °C 1008.0 hPa SSW 8.7 km/h 12.6 km/h 35 % 0.0 mm
18:05 26.2 °C 10.0 °C 1008.0 hPa SSW 3.2 km/h 12.2 km/h 35 % 0.0 mm
18:10 26.2 °C 10.0 °C 1008.0 hPa SSW 5.5 km/h 9.7 km/h 36 % 0.0 mm
18:15 26.3 °C 10.0 °C 1008.0 hPa SE 7.6 km/h 9.7 km/h 36 % 0.0 mm
18:20 26.4 °C 10.0 °C 1008.0 hPa SW 6.1 km/h 9.7 km/h 36 % 0.0 mm
18:25 26.5 °C 11.0 °C 1008.0 hPa SSE 1.4 km/h 9.7 km/h 36 % 0.0 mm
18:30 26.5 °C 10.0 °C 1008.0 hPa SSW 4.7 km/h 9.7 km/h 35 % 0.0 mm
18:36 26.3 °C 10.0 °C 1008.0 hPa SW 12.6 km/h 12.6 km/h 36 % 0.0 mm
18:41 26.1 °C 10.0 °C 1007.0 hPa SSW 5.5 km/h 12.6 km/h 36 % 0.0 mm
18:46 25.8 °C 10.0 °C 1007.0 hPa SSW 5.8 km/h 9.3 km/h 36 % 0.0 mm
18:51 25.6 °C 10.0 °C 1007.0 hPa SSW 6.1 km/h 9.3 km/h 37 % 0.0 mm
18:53 25.6 °C 10.0 °C 1007.0 hPa SSW 5.8 km/h 9.3 km/h 37 % 0.0 mm
18:58 25.4 °C 10.0 °C 1007.0 hPa WSW 9.0 km/h 9.0 km/h 37 % 0.0 mm
19:03 25.7 °C 10.0 °C 1007.0 hPa SSW 6.4 km/h 12.2 km/h 37 % 0.0 mm
19:08 25.7 °C 10.0 °C 1007.0 hPa SW 11.9 km/h 12.2 km/h 37 % 0.0 mm
19:13 25.7 °C 10.0 °C 1008.0 hPa WSW 9.3 km/h 11.9 km/h 37 % 0.0 mm
19:17 27.0 °C 10.0 °C 1008.0 hPa WSW 6.4 km/h 12.2 km/h 35 % 0.0 mm
19:22 26.2 °C 10.0 °C 1008.0 hPa SW 13.0 km/h 13.7 km/h 35 % 0.0 mm
19:27 26.0 °C 10.0 °C 1007.0 hPa SSW 9.0 km/h 13.7 km/h 36 % 0.0 mm
19:32 26.5 °C 11.0 °C 1007.0 hPa SW 7.9 km/h 12.6 km/h 37 % 0.0 mm
19:37 26.6 °C 11.0 °C 1007.0 hPa South 5.0 km/h 11.1 km/h 37 % 0.0 mm
19:42 25.8 °C 10.0 °C 1008.0 hPa SSW 10.1 km/h 12.6 km/h 37 % 0.0 mm
19:47 25.5 °C 10.0 °C 1008.0 hPa SW 10.5 km/h 12.6 km/h 37 % 0.0 mm
19:52 25.2 °C 9.0 °C 1008.0 hPa SSW 11.9 km/h 13.0 km/h 36 % 0.0 mm
19:57 25.5 °C 10.0 °C 1008.0 hPa Calm   13.0 km/h 37 % 0.0 mm
20:02 25.6 °C 10.0 °C 1008.0 hPa WSW 6.1 km/h 13.0 km/h 37 % 0.0 mm
20:07 25.8 °C 10.0 °C 1008.0 hPa WSW 3.2 km/h 11.9 km/h 37 % 0.0 mm
20:12 25.2 °C 12.0 °C 1008.0 hPa WNW 5.8 km/h 10.8 km/h 42 % 0.0 mm
20:17 24.6 °C 12.0 °C 1008.0 hPa ESE 3.5 km/h 10.8 km/h 44 % 0.0 mm
20:22 23.6 °C 12.0 °C 1008.0 hPa North 14.0 km/h 15.4 km/h 48 % 0.0 mm
20:27 22.7 °C 12.0 °C 1008.0 hPa North 9.0 km/h 15.4 km/h 50 % 0.0 mm
20:32 22.3 °C 12.0 °C 1008.0 hPa NNE 8.7 km/h 13.7 km/h 52 % 0.0 mm
20:37 21.9 °C 12.0 °C 1008.0 hPa NE 8.7 km/h 13.7 km/h 53 % 0.0 mm
20:42 21.5 °C 12.0 °C 1009.0 hPa NE 8.7 km/h 13.7 km/h 55 % 0.0 mm
20:48 21.1 °C 12.0 °C 1009.0 hPa North 10.5 km/h 13.7 km/h 56 % 0.0 mm
20:53 20.8 °C 12.0 °C 1009.0 hPa North 7.9 km/h 11.9 km/h 56 % 0.0 mm
20:58 20.6 °C 12.0 °C 1009.0 hPa NNE 5.0 km/h 13.7 km/h 56 % 0.0 mm
21:03 20.3 °C 12.0 °C 1009.0 hPa NNE 4.3 km/h 13.7 km/h 58 % 0.0 mm
21:08 20.0 °C 12.0 °C 1009.0 hPa NNE 1.8 km/h 10.1 km/h 59 % 0.0 mm
21:13 19.8 °C 12.0 °C 1009.0 hPa North 4.7 km/h 10.1 km/h 60 % 0.0 mm
21:18 19.6 °C 12.0 °C 1009.0 hPa NNW 10.5 km/h 10.5 km/h 60 % 0.0 mm
21:23 19.4 °C 12.0 °C 1009.0 hPa NNE 6.1 km/h 11.9 km/h 61 % 0.0 mm
21:28 19.2 °C 12.0 °C 1009.0 hPa North 4.7 km/h 11.9 km/h 61 % 0.0 mm
21:33 19.0 °C 12.0 °C 1009.0 hPa North 4.7 km/h 9.0 km/h 62 % 0.0 mm
21:38 18.9 °C 12.0 °C 1009.0 hPa Calm   9.0 km/h 62 % 0.0 mm
21:43 18.7 °C 11.0 °C 1009.0 hPa Calm   9.0 km/h 62 % 0.0 mm
21:48 18.5 °C 11.0 °C 1009.0 hPa Calm   5.8 km/h 62 % 0.0 mm
21:53 18.2 °C 11.0 °C 1009.0 hPa Calm   3.5 km/h 63 % 0.0 mm
21:58 17.9 °C 11.0 °C 1009.0 hPa Calm   2.1 km/h 64 % 0.0 mm
22:03 17.7 °C 11.0 °C 1009.0 hPa Calm   2.1 km/h 65 % 0.0 mm
22:08 17.4 °C 11.0 °C 1009.0 hPa Calm     66 % 0.0 mm
22:13 17.1 °C 11.0 °C 1009.0 hPa Calm     67 % 0.0 mm
22:18 16.9 °C 11.0 °C 1009.0 hPa Calm     67 % 0.0 mm
22:23 16.4 °C 11.0 °C 1009.0 hPa Calm     68 % 0.0 mm
22:28 16.0 °C 10.0 °C 1009.0 hPa Calm     69 % 0.0 mm
22:33 15.7 °C 10.0 °C 1009.0 hPa Calm     70 % 0.0 mm
22:38 15.4 °C 10.0 °C 1009.0 hPa Calm   3.2 km/h 71 % 0.0 mm
22:43 15.2 °C 10.0 °C 1009.0 hPa Calm   3.2 km/h 71 % 0.0 mm
22:48 14.9 °C 10.0 °C 1009.0 hPa Calm     72 % 0.0 mm
22:54 14.7 °C 10.0 °C 1009.0 hPa Calm     73 % 0.0 mm
22:59 14.5 °C 10.0 °C 1010.0 hPa Calm     74 % 0.0 mm
23:04 14.3 °C 10.0 °C 1010.0 hPa Calm     75 % 0.0 mm
23:09 14.1 °C 10.0 °C 1010.0 hPa Calm     75 % 0.0 mm
23:14 13.9 °C 10.0 °C 1009.0 hPa Calm     76 % 0.0 mm
23:19 13.7 °C 10.0 °C 1009.0 hPa Calm     77 % 0.0 mm
23:24 13.6 °C 10.0 °C 1009.0 hPa West 3.2 km/h 3.2 km/h 78 % 0.0 mm
23:29 13.6 °C 10.0 °C 1009.0 hPa Calm   6.9 km/h 79 % 0.0 mm
23:34 13.6 °C 10.0 °C 1009.0 hPa Calm   6.9 km/h 79 % 0.0 mm
23:39 13.5 °C 11.0 °C 1009.0 hPa Calm   8.7 km/h 80 % 0.0 mm
23:44 13.4 °C 10.0 °C 1009.0 hPa Calm   8.7 km/h 80 % 0.0 mm
23:49 13.3 °C 10.0 °C 1009.0 hPa Calm   5.0 km/h 81 % 0.0 mm
23:54 13.3 °C 11.0 °C 1009.0 hPa Calm     82 % 0.0 mm
23:59 13.2 °C 11.0 °C 1009.0 hPa Calm     82 % 0.0 mm
Le Gheer Warneton
Courtoisie de Weather Underground - 2.25 mb

Mise a jour : 17/12/2017 22:17:13
Généré par Cumulus 1.9.4 (1099)